Location: Endfield
(51.6667°N, 0.0667°W)
Time: 04:10:53
(UTC+00:00)

Cosmos 1943 Rocket - Pass Details

Date: 19 May 2024
Orbit: 810 x 844 km, 71.0° (Epoch: 21 June)

Event Time Altitude Azimuth Distance (km) Brightness Sun altitude
Rises 20:25:35 0° 326° (NNW) 3,415 7.3 -4.8°
Reaches altitude 10° 20:28:07 10° 321° (NW) 2,475 6.4 -5.1°
Maximum altitude 20:33:32 48° 249° (WSW) 1,093 3.1 -5.7°
Drops below altitude 10° 20:38:54 10° 177° (S) 2,447 4.2 -6.3°
Enters shadow 20:41:13 - 172° (S) 3,307 4.8 -6.6°
